Location: Unspecified
(0.0000°N, 0.0000°E)
Time: 12:09:59
(UTC+00:00)

STARLINK 1062 - Pass Details

Date: 11 December 2019
Orbit: 450 x 452 km, 53.0° (Epoch: 11 December)

Event Time Altitude Azimuth Distance (km) Brightness Sun altitude
Rises 19:44:42 0° 204° (SSW) 2,446 7.7 -25.5°
Reaches altitude 10° 19:46:53 10° 197° (SSW) 1,572 6.5 -26.0°
Enters shadow 19:48:06 19° 189° (S) 1,123 5.5 -26.2°
